Satellite: HAWKSAT1
Catalog number: 35003
Epoch time:      09183.82151972
Element set:      41
Inclination:      040.4694 deg
RA of node:       146.7958 deg
Eccentricity:    0.0029696
Arg of perigee:   284.9339 deg
Mean anomaly:     074.8193 deg
Mean motion:   15.39899600 rev/day
Decay rate:      1.113e-05 rev/day^2
Epoch rev:             676
Checksum:              325

Satellite: CP6
Catalog number: 35004
Epoch time:      09182.97403704
Element set:    38
Inclination:      040.4585 deg
RA of node:       151.7652 deg
Eccentricity:    0.0029251
Arg of perigee:   280.8623 deg
Mean anomaly:     078.9027 deg
Mean motion:   15.40127158 rev/day
Decay rate:    .3.168 e-04 rev/day^2
Epoch rev:           00662
Checksum:              290

Satellite: AEROCUB3
Catalog number: 35005
Epoch time:      09183.88716973
Element set:      35
Inclination:      040.4736 deg
RA of node:       146.4326 deg
Eccentricity:    0.0029254
Arg of perigee:   283.9219 deg
Mean anomaly:     075.8343 deg
Mean motion:   15.39957063 rev/day
Decay rate:      3.398e-05 rev/day^2
Epoch rev:             676
Checksum:              328

/EX





More information about the Keps mailing list